Content
SEND FEEDBACK

Daily
Averages
Monthly
Summary
Canada

QUEBEC CITY, QUEBEC


Home > North America > Canada > Quebec
Elevation: 239 feet     Latitude: 46 48N     Longitude: 071 23W

WEATHER
 
SELECT A DAY
Number of Records: 189,396;   Date Range: 6/30/96 - 4/15/14
 
SHARE

PRINT THIS DATA

[ ← Previous Day ]
WEATHER ALMANAC - JANUARY 14, 2013
[ Next Day → ]
[ °C ]   °F
Weather ElementAverageHighLow
Temperature36.1 °F41 °F (7:43 am)26.6 °F (10:00 pm)
Dewpoint20.3 °F39.2 °F (8:00 am) (7:00 pm)
Humidity77.6 %100 % (1:00 am)42 % (7:00 pm)
Wind Speed13.7 mph34.5 mph (1:28 pm)
Wind Gust42.6 mph (1:28 pm)
Weather ElementAverage
Visibility7.1 mi
Wind DirectionNNW (322.5 °)

Weather ElementTotal
Precipitation---
Heating Degree Days31.2 (Base 65)
Averaged from 44 records on January 14, 2013
WEATHER CONDITIONS BREAKOUT
WIND DIRECTION BREAKOUT
WEATHER BY HOUR - JANUARY 14, 2013
[ °C ]   °F
Local TimeTemperatureDewpointHumidityBarometerVisibilityWind DirectionWind SpeedGust SpeedPrecipitationEventsConditions
1:00 AM35.0 °F35.0 °F100 %29.80 inNE (50°)1.2 mph
1:00 AM37.4 °F35.6 °F93 %29.81 in0.2 miSSE (150°)2.3 mphFogLight Drizzle
2:00 AM37.4 °F35.6 °F93 %29.79 in0.2 miCalmFogLight Drizzle
3:00 AM37.4 °F35.6 °F93 %29.77 in0.5 miNNW (340°)3.5 mphFogLight Drizzle
4:00 AM37.4 °F35.6 °F93 %29.72 in0.5 miNorth (360°)3.5 mphFogLight Drizzle
4:00 AM36.0 °F36.0 °F100 %29.71 inCalm
5:00 AM35.6 °F35.6 °F100 %29.69 in0.5 miNE (50°)2.3 mphFog-RainLight Rain
6:00 AM37.4 °F35.6 °F93 %29.66 in1.8 miCalmRainLight Rain
6:17 AM37.4 °F0.0 °F2.0 miNorth (10°)2.3 mphRainLight Rain
6:37 AM37.4 °F0.0 °F1.0 miWest (280°)3.5 mphRainLight Rain
7:00 AM35.6 °F33.8 °F93 %29.70 in0.6 miWest (260°)10.4 mphRainLight Rain
7:00 AM35.0 °F35.0 °F100 %29.68 inWest (260°)5.8 mph
7:12 AM37.4 °F0.0 °F0.0 mi12.7 (2013°)0.00 inLight Rain260
7:19 AM39.2 °F0.0 °F2.0 miWSW (250°)9.2 mphRainLight Rain
7:43 AM41.0 °F0.0 °F3.0 miSW (230°)12.7 mphRainLight Rain Showers
8:00 AM41.0 °F39.2 °F93 %29.73 in2.2 miWSW (240°)13.8 mphRainLight Rain Showers
8:23 AM39.2 °F0.0 °F1.0 miWSW (240°)16.1 mph21.9 mphMist
8:49 AM41.0 °F0.0 °F0.0 mi25.3 (2013°)32.2 mph0.00 inFog250
9:00 AM39.2 °F39.2 °F100 %29.79 in0.2 miWSW (250°)25.3 mph32.2 mphFogFog
9:28 AM39.2 °F0.0 °F1.2 miWSW (250°)20.7 mphMist
9:49 AM37.4 °F0.0 °F2.0 miWSW (250°)19.6 mph28.8 mphOvercast
10:00 AM39.2 °F37.4 °F93 %29.85 in3.0 miWSW (250°)19.6 mphMostly Cloudy
10:00 AM39.0 °F39.0 °F100 %29.83 inWSW (250°)13.8 mph
10:36 AM39.2 °F0.0 °F5.0 miWSW (240°)20.7 mphMostly Cloudy
11:00 AM39.2 °F37.4 °F93 %29.88 in8.0 miSW (230°)20.7 mphMostly Cloudy
12:00 PM39.2 °F33.8 °F81 %29.91 in12.0 miWSW (240°)20.7 mph27.6 mphScattered Clouds
1:00 PM39.0 °F32.0 °F67 %29.94 inWest (260°)19.6 mph
1:00 PM39.2 °F30.2 °F70 %29.95 in12.0 miWSW (250°)25.3 mph36.8 mphMostly Cloudy
1:28 PM37.4 °F0.0 °F3.0 miWest (270°)34.5 mph42.6 mphRainLight Rain Showers
1:35 PM35.6 °F0.0 °F3.0 miWest (280°)25.3 mph42.6 mphRain-SnowLight Rain Showers
1:45 PM35.6 °F0.0 °F12.0 miWest (270°)20.7 mph29.9 mphMostly Cloudy
2:00 PM35.6 °F30.2 °F81 %30.02 in15.0 miWest (270°)15.0 mphMostly Cloudy
3:00 PM37.4 °F26.6 °F65 %30.06 in30.0 miWest (280°)12.7 mph21.9 mphPartly Cloudy
4:00 PM35.6 °F23.0 °F60 %30.11 in30.0 miWest (280°)18.4 mph27.6 mphPartly Cloudy
4:00 PM36.0 °F23.0 °F47 %30.10 inWest (280°)15.0 mph
5:00 PM33.8 °F21.2 °F60 %30.14 in15.0 miWNW (290°)15.0 mph21.9 mphPartly Cloudy
6:00 PM32.0 °F15.8 °F51 %30.15 in15.0 miWNW (300°)15.0 mph21.9 mphPartly Cloudy
7:00 PM32.0 °F18.0 °F42 %30.18 inWNW (300°)11.5 mph
7:00 PM30.2 °F15.8 °F55 %30.18 in15.0 miWNW (300°)15.0 mphPartly Cloudy
8:00 PM30.2 °F15.8 °F55 %30.19 in15.0 miWNW (300°)17.3 mph23.0 mphPartly Cloudy
9:00 PM28.4 °F15.8 °F59 %30.22 in15.0 miWNW (290°)15.0 mphPartly Cloudy
10:00 PM28.0 °F18.0 °F54 %30.21 inNW (310°)11.5 mph
10:00 PM26.6 °F15.8 °F64 %30.22 in15.0 miNW (310°)15.0 mph20.7 mphPartly Cloudy
11:00 PM26.6 °F14.0 °F59 %30.24 in15.0 miNW (320°)8.1 mphPartly Cloudy
Hourly data recorded from CYQB, located 0.55 miles away from Quebec City, Quebec







STORIES FROM OUR PARTNERS